Location: Rumah Long Bangan
(2.8362°N, 113.7519°E)
Time: 13:32:50
(UTC+00:00)

Daily predictions for brighter satellites

Satellite Brightness Start Highest point End
(mag) Time Altitude Azimuth Time Altitude Azimuth Time Altitude Azimuth
Cosmos 2263 Rocket 4.1 12:00:25 10° NW 12:05:08 29° WSW 12:09:53 10° SSW
CZ-4C R/B 4.4 12:05:54 10° W 12:08:09 14° WNW 12:10:28 10° NNW
YAOGAN 1 3.8 12:04:25 10° S 12:08:28 39° WSW 12:12:30 10° NNW
Cosmos 2016 Rocket 4.0 12:02:30 10° S 12:08:49 77° W 12:10:30 51° NNW
Cosmos 1725 Rocket 3.9 12:07:23 10° S 12:13:38 82° W 12:13:38 82° W
Cosmos 44 Rocket 4.3 12:12:21 10° SW 12:16:26 47° WSW 12:16:26 47° WSW
Lacrosse 5 4.4 12:19:18 10° W 12:22:05 15° WNW 12:23:53 12° NW
ARIANE 5 R/B 3.7 12:30:42 10° WSW 13:13:40 - E 21:30:49 10° E
Milstar 3 4.2 18:59:30 62° SE 18:59:30 62° SE 19:07:43 10° ENE
Cosmos 1980 Rocket 4.5 19:19:36 20° ESE 19:19:36 20° ESE 19:22:02 10° SE
CZ-3B R/B 4.3 19:23:02 37° SE 19:23:02 37° SE 19:29:02 10° SE
ATLAS 3B CENTAUR R/B 3.8 19:43:38 27° ENE 19:43:38 27° ENE 19:47:03 10° ENE
Hubble Space Telescope 3.3 20:01:52 19° ENE 20:01:52 19° ENE 20:03:27 10° E
Cosmos 2278 4.3 20:02:48 50° NE 20:03:30 53° ENE 20:09:01 10° SSE
Ariane 5 R/B 4.0 20:07:00 58° ENE 20:07:00 58° ENE 20:10:14 10° E
Cosmos 1125 Rocket 4.1 20:08:25 50° SSE 20:08:25 50° SSE 20:12:18 10° SSE
ATLAS 5 CENTAUR R/B 3.9 20:12:19 29° SSW 20:12:19 29° SSW 20:16:27 10° S
Cosmos 2151 Rocket 3.9 20:20:50 62° SE 20:20:50 62° SE 20:24:51 10° S
Cosmos 1470 4.1 20:23:36 34° SSE 20:23:36 34° SSE 20:25:55 10° SSE
ARIANE 5 R/B 3.4 20:15:07 37° W 20:22:32 86° N 20:27:28 10° E
Meteor 1-22 Rocket 4.0 20:27:21 70° W 20:27:21 70° W 20:32:41 10° S
Cosmos 2341 Rocket 3.8 20:24:34 16° N 20:29:35 86° W 20:35:49 10° S
FALCON 9 DEB 4.5 20:36:01 34° ESE 20:36:01 34° ESE 20:38:00 10° SE
Sea Lan Dem Rocket 2.3 20:38:16 51° SSW 20:38:46 56° S 20:44:17 10° E
BLOCK DM-SL R/B 3.8 20:38:17 39° WSW 20:39:55 59° S 20:52:37 10° ESE
H-2A R/B 2.6 20:41:34 26° SSW 20:41:34 26° SSW 20:46:50 10° SE
Cosmos 1867 3.5 20:36:12 10° SSW 20:41:35 84° ESE 20:47:00 10° NNE
NOSS 3-1 (C) 4.3 20:36:49 18° NNW 20:43:55 79° WSW 20:53:02 10° SSE
Spelda 30 3.9 20:44:53 21° SSE 20:44:53 21° SSE 20:46:55 10° ESE
Cosmos 2366 rocket 4.1 20:38:48 10° N 20:45:08 79° E 20:51:28 10° S
Centaur D-1AR AC-40 3.7 20:47:03 18° NNW 20:48:14 19° N 20:54:03 10° NE
Star 48 S/N 10035-3 4.3 20:51:10 54° ENE 20:51:10 54° ENE 20:53:38 10° ESE
Cosmos 1975 Rocket 2.9 20:47:05 10° S 20:51:26 68° W 20:55:48 10° N
Cosmos 923 Rocket 4.2 20:48:27 10° SSW 20:53:26 46° WNW 20:58:23 10° N
Nadezhda 3 Rocket 3.8 20:47:57 10° S 20:54:07 81° W 21:00:15 10° N
Cosmos 1680 Rocket 3.4 20:50:13 10° SSW 20:55:22 66° WNW 21:00:32 10° N
Cosmos 1980 Rocket 3.3 21:01:27 23° WSW 21:01:27 23° WSW 21:05:37 10° SSW
SAR-Lupe-3 4.4 20:59:10 10° N 21:02:41 76° WNW 21:06:14 10° SSW
BLOCK DM-SL R/B 0.7 21:02:59 38° S 21:02:59 38° S 21:05:10 10° ESE
Ariane H10+ 4.3 21:01:04 23° W 21:08:18 77° N 21:43:28 10° E
SL-08 R/B 4.0 21:05:49 10° SSW 21:09:53 31° WSW 21:12:11 20° WNW
Cosmos 1908 3.7 21:09:55 10° N 21:13:40 62° E 21:17:25 10° SSE
Cosmos 1441 Rocket 3.5 21:12:18 10° SSW 21:15:55 41° W 21:19:27 10° NNW
YAOGAN 6 2.4 21:12:21 10° N 21:15:56 77° W 21:19:34 10° SSW
Cosmos 389 Rocket 2.9 21:13:34 13° NNW 21:16:27 40° W 21:19:49 10° SSW
Ariane H10 4.1 21:15:38 15° WSW 21:18:00 47° SSE 21:27:06 10° E
Envisat 2.9 21:13:22 10° N 21:18:26 80° WNW 21:23:31 10° SSW
Cosmos 1758 3.9 21:14:59 10° NNW 21:18:39 34° W 21:22:21 10° SSW
CZ-4B R/B 3.7 21:15:59 10° N 21:19:50 78° WNW 21:23:56 10° SSW
Cosmos 1953 2.6 21:17:56 10° N 21:21:53 70° E 21:25:50 10° S
SL-14 R/B 4.0 21:18:21 10° SSW 21:21:57 32° W 21:25:30 10° NNW
Cosmos 2112 Rocket 4.5 21:19:05 10° SW 21:23:48 36° WNW 21:28:33 10° N
Cosmos 1821 Rocket 4.1 21:23:48 10° N 21:29:53 80° E 21:35:59 10° S
Meteor 1-31 Rocket 2.8 21:27:50 10° N 21:31:29 51° WNW 21:35:11 10° SSW
Cosmos 2297 Rocket 2.3 21:28:00 10° SSW 21:33:39 81° ESE 21:39:17 10° NNE
H-2A R/B 3.2 21:31:21 10° NNW 21:34:45 35° W 21:38:08 10° SW
Okean 1 Rocket 4.1 21:31:10 10° NW 21:34:53 26° W 21:38:37 10° SSW
Cosmos 2219 4.1 21:29:33 10° S 21:35:09 56° ESE 21:40:41 10° NNE
Cosmos 332 Rocket 4.1 21:34:05 10° N 21:38:50 73° ENE 21:43:36 10° SSE
Hubble Space Telescope 1.3 21:37:11 11° WNW 21:41:02 44° SSW 21:44:59 10° SE
deb Centaur AC-2 4.3 21:37:58 10° SW 21:42:41 74° SSE 21:46:58 10° ENE
Milstar 3 3.8 21:34:14 10° W 21:43:22 36° NNW 21:49:41 10° NE
USA 229 DEB 4.3 21:39:45 10° NW 21:47:14 49° WSW 21:54:45 10° S
USA 229 4.3 21:39:50 10° NW 21:47:22 50° WSW 21:54:54 10° S
ATLAS 3B CENTAUR R/B 3.9 21:47:02 10° WNW 21:52:17 32° NNW 22:01:46 10° NE
ARIANE 44L R/B 4.0 21:49:09 10° WSW 21:53:51 22° SSW 21:56:02 10° SE
ARIANE 5 R/B 3.4 21:40:28 10° W 22:00:38 66° N 22:04:09 10° ENE
